[[{"header":{"parameterUnit":"m.s-1","parameterCategory":1,"la1":30.2991,"la2":30.254,"lo1":-89.0895,"lo2":-89.0444,"dy":0.0017,"dx":0.0017,"nx":28,"ny":28,"refTime":"2025-11-19T03:00:00:Z","depth":0,"parameterNumber":2,"parameterNumberName":"U-component_of_WINDS"},"data":[0,0,0,0,0,0,0,0,0,0,0,0,0,0,0,0,0,0,0,0,0,0,0,0,0,0,0,0,0,0,0,0,0,0,0,0,0,0,0,0,0,0,0,0,0,0,0,0,0,0,0,0,0,0,0,0,0,0,-0.5388,-0.5388,0,-0.542,-0.542,-0.542,-0.5414,-0.5414,-0.5413,-0.5412,-0.5446,-0.5447,-0.5448,0,0,0,0,0,0,0,0,0,0,0,0,0,-0.5323,-0.5324,-0.5388,-0.5388,-0.5389,-0.542,-0.542,-0.5421,-0.5414,-0.5414,-0.5413,-0.5412,-0.5445,-0.5447,-0.5448,0,0,0,0,0,0,0,0,0,0,0,0,0,-0.5353,-0.5325,-0.5388,-0.5389,-0.539,-0.542,-0.542,-0.5421,-0.5414,-0.5414,-0.5413,-0.5412,-0.5444,-0.5447,-0.5449,-0.5479,0,0,-0.5455,-0.5456,0,0,0,0,0,0,0,0,-0.5351,-0.5355,-0.5389,-0.5389,-0.539,-0.5412,-0.5409,-0.544,-0.5415,-0.5405,-0.5412,-0.5411,-0.5435,-0.5438,-0.5446,-0.5481,-0.5482,-0.5455,-0.5457,-0.5458,-0.5458,0,0,0,0,0,0,0,-0.5349,-0.5354,-0.5401,-0.5389,-0.539,-0.5389,-0.5392,-0.5415,-0.5425,-0.5406,-0.5405,-0.5409,-0.5435,-0.5444,-0.5447,-0.5483,-0.5455,-0.5457,-0.5459,-0.5459,-0.5544,-0.5545,0,0,0,0,0,0,-0.5346,-0.5352,-0.54,-0.5402,-0.5368,-0.5391,-0.5394,-0.5406,-0.5424,-0.5426,-0.541,-0.5409,-0.5441,-0.5444,-0.5448,-0.5484,-0.5458,-0.546,-0.5461,-0.5543,-0.5544,-0.5545,0,0,0,0,0,0,-0.5345,-0.5351,-0.5398,-0.5377,-0.5383,-0.5393,-0.5406,-0.5407,-0.5415,-0.5427,-0.5429,-0.5417,-0.544,-0.5445,-0.5471,-0.5485,-0.5461,-0.5462,-0.5542,-0.5543,-0.5545,-0.5558,0,0,0,0,0,0,-0.5343,-0.535,-0.5362,-0.5377,-0.5384,-0.5421,-0.5407,-0.5408,-0.5419,-0.5418,-0.5434,-0.5436,-0.544,-0.5468,-0.5473,-0.5488,-0.5464,-0.5541,-0.5543,-0.5544,-0.5556,-0.556,-0.5563,0,0,0,0,0,-0.5341,-0.5364,-0.5362,-0.5368,-0.5398,-0.5422,-0.5426,-0.5429,-0.542,-0.5432,-0.544,-0.5436,-0.5483,-0.5471,-0.5477,-0.5492,-0.554,-0.5542,-0.5544,-0.5555,-0.5559,-0.5563,0,0,0,0,0,0,-0.5351,-0.5366,-0.5364,-0.5393,-0.5406,-0.5421,-0.5436,-0.5434,-0.545,-0.5448,-0.5452,-0.5455,-0.5482,-0.549,-0.5476,-0.5523,-0.551,-0.5514,-0.5516,-0.552,-0.5524,-0.5521,-0.5466,0,0,0,0,0,-0.5356,-0.5374,-0.5387,-0.5411,-0.5418,-0.5426,-0.5436,-0.5438,-0.5451,-0.5457,-0.5467,-0.548,-0.5498,-0.551,-0.5527,-0.5558,-0.5561,-0.5571,-0.5574,-0.5577,-0.558,-0.5596,-0.5601,-0.5552,-0.5552,-0.5552,0,0,-0.5368,-0.5379,-0.539,-0.5414,-0.5424,-0.5442,-0.543,-0.545,-0.5464,-0.546,-0.5485,-0.5493,-0.5509,-0.5537,-0.555,-0.5545,-0.5594,-0.558,-0.5582,-0.5583,-0.5599,-0.5603,-0.5607,-0.5554,-0.5554,-0.5553,0,0,-0.5399,-0.5409,-0.543,-0.544,-0.5456,-0.5461,-0.5466,-0.5481,-0.5486,-0.5511,-0.5509,-0.5525,-0.5556,-0.5567,-0.5577,-0.5612,-0.5608,-0.5617,-0.5633,-0.5649,-0.5653,-0.5657,-0.5669,-0.5673,-0.562,-0.562,-0.562,0,-0.5411,-0.5438,-0.5441,-0.5461,-0.5472,-0.5469,-0.5491,-0.5501,-0.5521,-0.5529,-0.5522,-0.556,-0.5571,-0.5602,-0.561,-0.5618,-0.5624,-0.5615,-0.5652,-0.5656,-0.5659,-0.567,-0.5675,-0.5621,-0.5621,-0.5621,-0.5621,0,-0.5453,-0.5472,-0.5487,-0.5507,-0.5519,-0.554,-0.5546,-0.5559,-0.5559,-0.5565,-0.5591,-0.5603,-0.5623,-0.563,-0.5631,-0.5661,-0.5657,-0.5652,-0.5639,-0.5664,-0.5675,-0.568,-0.5622,-0.5622,-0.5622,-0.5621,0,0,-0.549,-0.5511,-0.5516,-0.5525,-0.5542,-0.5557,-0.5578,-0.5597,-0.5607,-0.5621,-0.5639,-0.5665,-0.566,-0.5671,-0.5673,-0.5687,-0.5713,-0.5679,-0.568,-0.5685,-0.5747,-0.5751,-0.5756,-0.5711,-0.5712,-0.5713,-0.5745,0,-0.5522,-0.5558,-0.5561,-0.5594,-0.5611,-0.5609,-0.5627,-0.5639,-0.5646,-0.5662,-0.5669,-0.5687,-0.5679,-0.5685,-0.5699,-0.5707,-0.5726,-0.5705,-0.5727,-0.5728,-0.5723,-0.5761,-0.5766,-0.5796,-0.575,-0.575,-0.5751,0,-0.5564,-0.5579,-0.5613,-0.5627,-0.5635,-0.5651,-0.5668,-0.5683,-0.5698,-0.5701,-0.5713,-0.5713,-0.5735,-0.5722,-0.5752,-0.5737,-0.5747,-0.5752,-0.5754,-0.5755,-0.5741,-0.5764,-0.5805,-0.581,-0.5758,-0.5757,-0.5757,0,-0.5587,-0.5616,-0.564,-0.5647,-0.5665,-0.5676,-0.5684,-0.5697,-0.5708,-0.5724,-0.5731,-0.5749,-0.5758,-0.5772,-0.5777,-0.5768,-0.5807,-0.5794,-0.581,-0.581,-0.5818,-0.5817,-0.5861,-0.5825,-0.5825,-0.5825,-0.5825,0,-0.5621,-0.5642,-0.565,-0.5665,-0.5688,-0.5692,-0.5715,-0.5723,-0.5735,-0.5751,-0.575,-0.5766,-0.5771,-0.5788,-0.5792,-0.5816,-0.582,-0.5823,-0.5824,-0.5823,-0.5823,-0.5829,-0.5827,-0.5826,-0.5826,-0.5825,-0.5825,0,-0.5651,-0.5657,-0.5683,-0.5697,-0.5702,-0.5718,-0.573,-0.5745,-0.5751,-0.5771,-0.5776,-0.5786,-0.5805,-0.5812,-0.5835,-0.5838,-0.5865,-0.5864,-0.586,-0.586,-0.5875,-0.5873,-0.5924,-0.5931,-0.5891,-0.5891,-0.5892,0,-0.5672,-0.5688,-0.5704,-0.5715,-0.5723,-0.574,-0.5751,-0.5756,-0.5768,-0.5785,-0.5797,-0.5816,-0.5831,-0.5862,-0.5871,-0.5889,-0.5888,-0.5905,-0.5891,-0.5889,-0.5888,-0.5887,-0.5888,-0.5907,-0.5908,-0.5908,-0.5908,0,-0.5709,-0.5712,-0.5727,-0.5745,-0.5758,-0.5772,-0.5785,-0.5794,-0.58,-0.5814,-0.5833,-0.5845,-0.5868,-0.5887,-0.5905,-0.5914,-0.5912,-0.5913,-0.5917,-0.5916,-0.5913,-0.5914,-0.5866,-0.5911,-0.5911,-0.5911,-0.5911,-0.5911,-0.5735,-0.5749,-0.5762,-0.578,-0.579,-0.5803,-0.5817,-0.5824,-0.5841,-0.586,-0.5862,-0.5883,-0.5897,-0.5921,-0.593,-0.5946,-0.5942,-0.5948,-0.595,-0.5951,-0.5952,-0.5911,-0.595,-0.595,-0.595,-0.595,-0.595,0,-0.5772,-0.578,-0.5796,-0.5815,-0.5829,-0.5826,-0.5841,-0.5852,-0.5871,-0.5884,-0.5899,-0.5921,-0.5939,-0.595,-0.5968,-0.5979,-0.5979,-0.5983,-0.5982,-0.5984,-0.5956,-0.595,-0.5983,-0.5983,-0.5983,-0.5983,-0.5983,-0.5983,-0.5792,-0.5815,-0.5819,-0.5848,-0.5856,-0.5876,-0.5885,-0.5896,-0.5906,-0.5931,-0.5946,-0.5953,-0.5965,-0.5984,-0.6,-0.6003,-0.601,-0.6015,-0.6017,-0.599,-0.5986,-0.5983,-0.5977,-0.6016,-0.6016,-0.6044,-0.6044,-0.6044]},{"header":{"parameterUnit":"m.s-1","parameterCategory":1,"la1":30.2991,"la2":30.254,"lo1":-89.0895,"lo2":-89.0444,"dy":0.0017,"dx":0.0017,"nx":28,"ny":28,"refTime":"2025-11-19T03:00:00:Z","depth":0,"parameterNumber":3,"parameterNumberName":"V-component_of_WINDS"},"data":[0,0,0,0,0,0,0,0,0,0,0,0,0,0,0,0,0,0,0,0,0,0,0,0,0,0,0,0,0,0,0,0,0,0,0,0,0,0,0,0,0,0,0,0,0,0,0,0,0,0,0,0,0,0,0,0,0,0,0.4249,0.4249,0,0.4215,0.4215,0.4214,0.4195,0.4195,0.4195,0.4195,0.4158,0.4157,0.4156,0,0,0,0,0,0,0,0,0,0,0,0,0,0.4295,0.4295,0.4249,0.4249,0.4248,0.4215,0.4215,0.4214,0.4195,0.4195,0.4195,0.4195,0.4158,0.4157,0.4156,0,0,0,0,0,0,0,0,0,0,0,0,0,0.427,0.4294,0.4249,0.4235,0.4233,0.4215,0.4215,0.4214,0.4195,0.4195,0.4195,0.4195,0.4158,0.4157,0.4156,0.4149,0,0,0.4151,0.4151,0,0,0,0,0,0,0,0,0.4271,0.4268,0.4237,0.4236,0.4234,0.4209,0.4217,0.4192,0.4195,0.4209,0.4195,0.4195,0.4175,0.4172,0.4166,0.4147,0.4145,0.4151,0.415,0.415,0.4149,0,0,0,0,0,0,0,0.4273,0.4269,0.4235,0.4237,0.4235,0.4229,0.4226,0.4213,0.4193,0.4208,0.4207,0.4203,0.4174,0.4167,0.4165,0.4145,0.4151,0.415,0.4149,0.4148,0.412,0.412,0,0,0,0,0,0,0.4277,0.4271,0.4237,0.4234,0.4253,0.4229,0.4224,0.4217,0.4193,0.4189,0.4203,0.4202,0.417,0.4166,0.4163,0.4155,0.415,0.4148,0.4148,0.412,0.412,0.412,0,0,0,0,0,0,0.4278,0.4274,0.4238,0.4252,0.4247,0.4228,0.422,0.4217,0.421,0.4189,0.4185,0.42,0.4169,0.4165,0.4153,0.4153,0.4148,0.4146,0.412,0.412,0.412,0.4137,0,0,0,0,0,0,0.428,0.4275,0.4272,0.4252,0.4247,0.4229,0.422,0.4216,0.4208,0.4206,0.4185,0.4182,0.4169,0.4155,0.4152,0.4151,0.4145,0.412,0.412,0.412,0.4136,0.4138,0.4139,0,0,0,0,0,0.4282,0.4277,0.4272,0.4268,0.4243,0.4229,0.4225,0.4211,0.4208,0.4205,0.4192,0.4183,0.4154,0.4154,0.415,0.4149,0.412,0.412,0.412,0.4136,0.4137,0.4139,0,0,0,0,0,0,0.4297,0.4275,0.4269,0.4258,0.4246,0.4225,0.4221,0.4213,0.4201,0.42,0.4182,0.4177,0.4167,0.4157,0.4157,0.4142,0.4136,0.4135,0.4149,0.415,0.4152,0.4154,0.4144,0,0,0,0,0,0.4299,0.429,0.4271,0.4263,0.4257,0.4241,0.4234,0.4224,0.421,0.4204,0.419,0.4177,0.4165,0.4157,0.4144,0.4135,0.413,0.4132,0.4133,0.4134,0.4134,0.413,0.413,0.4121,0.4121,0.4121,0,0,0.4303,0.429,0.4285,0.4266,0.4255,0.4246,0.4236,0.4226,0.4219,0.4203,0.4191,0.418,0.4163,0.4153,0.4147,0.4144,0.4136,0.4135,0.4136,0.4135,0.413,0.4131,0.4132,0.4121,0.4121,0.4121,0,0,0.4306,0.4295,0.4288,0.4278,0.4263,0.4252,0.425,0.4232,0.4224,0.4212,0.4201,0.4191,0.4171,0.416,0.4152,0.4153,0.4144,0.4149,0.4155,0.4151,0.4152,0.4153,0.4154,0.4154,0.4149,0.4149,0.4149,0,0.4313,0.4299,0.4285,0.4277,0.4269,0.4256,0.4249,0.4239,0.422,0.4215,0.4211,0.4186,0.4174,0.4161,0.4162,0.4155,0.4153,0.4151,0.4153,0.4153,0.4154,0.4155,0.4155,0.4149,0.4149,0.4149,0.4149,0,0.4309,0.4299,0.4296,0.4279,0.4271,0.4263,0.4248,0.4242,0.4233,0.4223,0.4212,0.4197,0.4182,0.4178,0.4169,0.4164,0.4163,0.4156,0.415,0.4156,0.4157,0.4157,0.4151,0.415,0.415,0.415,0,0,0.4319,0.4297,0.4296,0.4289,0.4271,0.4263,0.4255,0.4242,0.4237,0.4224,0.4217,0.4201,0.4196,0.4186,0.4176,0.4173,0.4176,0.4167,0.4166,0.417,0.4171,0.4177,0.4177,0.417,0.417,0.417,0.4173,0,0.432,0.4306,0.4294,0.4284,0.4276,0.4263,0.4256,0.4245,0.4235,0.4227,0.4216,0.4205,0.4198,0.4193,0.4188,0.4176,0.4176,0.4176,0.4163,0.4163,0.4168,0.4177,0.4182,0.4186,0.4173,0.4173,0.4173,0,0.4319,0.4308,0.4298,0.4283,0.4279,0.4273,0.4261,0.4253,0.424,0.4233,0.4224,0.4214,0.4205,0.42,0.4188,0.4188,0.4182,0.4176,0.4175,0.4174,0.4169,0.4177,0.4187,0.4188,0.4173,0.4173,0.4173,0,0.4328,0.4312,0.4304,0.4298,0.428,0.4276,0.4269,0.4256,0.4249,0.4238,0.4234,0.4221,0.4215,0.4206,0.4193,0.419,0.4182,0.4176,0.4177,0.4177,0.4176,0.4176,0.4186,0.4171,0.4171,0.4171,0.4171,0,0.4331,0.4325,0.4308,0.4303,0.4297,0.4284,0.4277,0.4269,0.4258,0.4251,0.4239,0.4233,0.4216,0.4208,0.4197,0.419,0.4186,0.4181,0.4178,0.4182,0.4183,0.4178,0.4178,0.4171,0.4171,0.4171,0.4171,0,0.434,0.4328,0.4319,0.4304,0.43,0.4296,0.4282,0.4277,0.4268,0.4259,0.4257,0.4241,0.4231,0.4218,0.4203,0.4196,0.419,0.4186,0.4195,0.4194,0.4196,0.4196,0.4203,0.4204,0.4188,0.4189,0.4189,0,0.4342,0.4338,0.4323,0.4318,0.4311,0.4303,0.4297,0.4284,0.4278,0.4264,0.4261,0.425,0.4241,0.4226,0.4213,0.4202,0.4198,0.4201,0.4196,0.4201,0.4199,0.4199,0.4199,0.4202,0.4202,0.4203,0.4203,0,0.4348,0.4343,0.4335,0.4325,0.4318,0.431,0.4301,0.4297,0.4283,0.4276,0.4267,0.426,0.4246,0.4236,0.4224,0.4215,0.4207,0.4205,0.4204,0.4208,0.4214,0.4212,0.4199,0.4204,0.4204,0.4204,0.4204,0.4204,0.4354,0.435,0.434,0.4331,0.4324,0.4316,0.4311,0.4302,0.4294,0.4282,0.4275,0.4266,0.4255,0.4238,0.423,0.4223,0.4219,0.4219,0.4219,0.4219,0.4221,0.4216,0.422,0.422,0.422,0.422,0.422,0,0.436,0.4353,0.4345,0.4334,0.4328,0.4322,0.4312,0.4307,0.4299,0.429,0.4282,0.4272,0.4262,0.425,0.424,0.4236,0.4232,0.4234,0.4234,0.4233,0.4224,0.4226,0.4238,0.4238,0.4238,0.4238,0.4238,0.4238,0.4362,0.4356,0.435,0.434,0.4333,0.4325,0.432,0.4313,0.4306,0.4295,0.4288,0.428,0.427,0.4259,0.425,0.4247,0.4244,0.4247,0.4243,0.4235,0.4233,0.4232,0.4233,0.4247,0.4247,0.4253,0.4253,0.4253]}]]